Regional Weather Roundup
Issued by NWS Binghamton, NY

Home | Current Version | Previous Version | Text Only | Print | Product List | Glossary On
Versions: 1 2 3 4 5 6 7 8 9 10 11 12 13 14 15 16 17 18 19 20 21 22 23 24 25 26 27 28 29 30 31 32 33 34 35 36 37 38 39 40 41 42 43 44 45 46 47 48 49 50
000
ASUS41 KBGM 271210
RWRBGM
RWRBGM
BINGHAMTON REGIONAL WEATHER ROUNDUP
NATIONAL WEATHER SERVICE BINGHAMTON NY
800 AM EDT MON APR 27 2015

Note: "fair" indicates few or no clouds below 12,000 feet with no
significant weather and/or obstructions to visibility.

* = Station(s) that does not report precipitation, such as rain,
snow, etc, also no thunder or fog.

!NYZ009-015>018-022>025-036-037-044>046-055>057-062-271300
...CENTRAL NEW YORK...

CITY           SKY/WX    TMP DP  RH WIND       PRES   REMARKS
BINGHAMTON     CLOUDY    39  34  82 NW7       29.71R WCI  34
CORTLAND       CLOUDY    41  37  87 CALM      29.75S
DANSVILLE      CLOUDY    43  36  76 CALM      29.79S
ELMIRA         CLOUDY    44  35  70 W3        29.76R
ITHACA         LGT RAIN  40  36  86 NW7       29.76R
MONTICELLO     CLOUDY    39  30  70 NW9       29.70S WCI  33
PENN YAN       CLOUDY    42  34  73 VRB6      29.77R
ROME           CLOUDY    41  35  79 W5        29.75R
SYRACUSE       CLOUDY    43  37  79 W8        29.75R
$$

!PAZ038>040-043-044-047-048-072-271300
...NORTHEAST PENNSYLVANIA...

CITY           SKY/WX    TMP DP  RH WIND       PRES   REMARKS
HAZLETON       CLOUDY    43  32  65 NW7       29.74R
SCRANTON       CLOUDY    44  32  62 NW6       29.73R
TOWANDA*       MOSUNNY   45  34  65 MISG      29.76S
$$
&&
KEY
WCI = WIND CHILL INDEX
VSB = VISIBILITY
HX  = HEAT INDEX
$$



USA.gov is the U.S. government's official web portal to all federal, state and local government web resources and services.